Location: Les Salelles
(44.4192°N, 4.1044°E)
Time: 12:19:09
(UTC+00:00)

Cosmos 1626 Rocket - Pass Details

Date: 20 January 2021
Orbit: 603 x 631 km, 82.5° (Epoch: 06 March)

Event Time Altitude Azimuth Distance (km) Brightness Sun altitude
Rises 17:45:12 0° 159° (SSE) 2,863 6.9 -12.2°
Reaches altitude 10° 17:47:38 10° 148° (SSE) 1,969 6.0 -12.6°
Maximum altitude 17:51:20 28° 89° (E) 1,172 4.4 -13.2°
Enters shadow 17:54:04 15° 39° (NE) 1,661 5.3 -13.7°
